Regional Weather Roundup
Issued by NWS

Home | Current Version | Previous Version | Text Only | Print | Product List | Glossary Off
Versions: 1 2 3 4 5 6 7 8 9 10 11 12 13 14 15 16 17 18 19 20 21 22 23 24 25 26 27 28 29 30 31 32 33 34 35 36 37 38 39 40 41 42 43 44 45 46 47 48 49 50

000
ASUS45 KTFX 211510
RWRMT
MONTANA REGIONAL WEATHER ROUNDUP
NATIONAL WEATHER SERVICE GREAT FALLS MT
900 AM MDT TUE AUG 21 2018

NOTE: "FAIR" INDICATES FEW OR NO CLOUDS BELOW 12000 FEET WITH NO
SIGNIFICANT WEATHER AND/OR OBSTRUCTIONS TO VISIBILITY.

MTZ001>007-043-211600-
WEST OF THE DIVIDE

CITY           SKY/WX    TMP DP  RH WIND       PRES   REMARKS
KALISPELL      FAIR      52  44  74 N3        30.25S SMOKE
MISSOULA       FAIR      54  50  86 NW6       30.24S
BUTTE          CLOUDY    48  42  80 SE6       30.29R
MULLAN PASS    FAIR      47  34  60 E3        30.28R
ANACONDA         N/A     48  43  81 CALM      30.28R
DEER LODGE       N/A     50  45  81 NW6       30.29R
LIBBY            N/A     48  39  71 CALM      30.25
PLAINS           N/A     47  44  89 CALM      30.23R
$$

MTZ008-052>055-211600-
SOUTHWEST MONTANA

CITY           SKY/WX    TMP DP  RH WIND       PRES   REMARKS
BOZEMAN        CLOUDY    51  46  83 W3        30.27S
DILLON         CLOUDY    47  44  90 NE12      30.26R
ENNIS          CLOUDY    48  45  87 N12       30.31R
W YELLOWSTONE  CLOUDY    48  39  71 CALM      30.27S
$$

MTZ009-010-012-014-046-048-049-054-211600-
EAST SLOPES AND CENTRAL MONTANA

CITY           SKY/WX    TMP DP  RH WIND       PRES   REMARKS
CUT BANK       FAIR      45  41  86 CALM      30.30S FOG
GREAT FALLS    FAIR      47  46  97 CALM      30.30R FOG
MALMSTROM AFB  FAIR      46  46  97 CALM      30.31R
HELENA         CLOUDY    53  46  77 NW6       30.28S
CHOTEAU          N/A     48  43  81 CALM      30.32S
RAYNESFORD     CLOUDY    49  47  93 E9        30.30S
ULM            FAIR      48  48 100 CALM      30.30R
$$

MTZ011-013-016-021-045-047-050-051-211600-
NORTH CENTRAL MONTANA

CITY           SKY/WX    TMP DP  RH WIND       PRES   REMARKS
HAVRE          FAIR      50  45  83 CALM      30.31S
LEWISTOWN      FAIR      51  46  83 E9        30.31S
N BAR RANCH    CLOUDY    48  45  87 CALM      30.35S
CHINOOK          N/A     48  45  87 CALM      30.32S
DENTON         FAIR      53  51  90 CALM      30.28R
GEYSER         PTSUNNY   49  49 100 CALM      30.30S
GRASS RANGE    FAIR      51  47  87 E5        30.29S
JUDITH GAP     CLOUDY    47  46  95 S8        30.31S
ROY            FAIR      54  49  82 SE8       30.31R
STANFORD       FAIR      50  46  85 SE7       30.31R
WINIFRED       FAIR      50  47  87 E8        30.31R
$$

MTZ017>020-022>027-061-062-211600-
NORTHEAST MONTANA

CITY           SKY/WX    TMP DP  RH WIND       PRES   REMARKS
GLASGOW        FAIR      56  40  55 W5        30.31S
GLENDIVE       FAIR      60  43  53 NW6       30.33R
JORDAN           N/A     51  43  74 CALM      30.32S
MALTA          SUNNY     48  46  93 W3        30.30F
SIDNEY         FAIR      57  43  59 S3        30.30F
WOLF POINT     FAIR      54  43  66 SW3       30.31S
POPLAR           N/A     54  39  58 W6        30.31S
SCOBEY           N/A     52  35  52 CALM      30.27R
$$

MTZ028>42-056>058-211600-
SOUTHCENTRAL AND SOUTHEAST MONTANA

CITY           SKY/WX    TMP DP  RH WIND       PRES   REMARKS
BAKER          FAIR      57  50  77 SW3       30.33S
BILLINGS       DRZL/FOG  49  49 100 NE8       30.29R VSB 3/4
LIVINGSTON     CLOUDY    48  48 100 E13       30.29S
MILES CITY     CLOUDY    55  53  93 E5        30.31S
BIG TIMBER     FOG       46  46 100 NE8       30.32S VSB 1/2
EKALAKA          N/A     52  47  83 E5        30.27
FORSYTH          N/A     54  54 100 E5        30.31S
HARLOWTON      DRIZZLE   47  46  97 E7        30.31S
ROUNDUP          N/A     50  46  85 E5        30.20S
$$

REGIONAL REPORTS...DAKOTAS

CITY           SKY/WX    TMP DP  RH WIND       PRES   REMARKS
WILLISTON      FAIR      60  40  47 W5        30.29S
MINOT          FAIR      62  42  47 CALM      30.25R
DICKINSON      FAIR      63  45  51 NW8       30.29S
BEACH          FAIR      59  48  67 NW7       30.35S
CROSBY         FAIR      59  41  51 NW5       30.28S
TIOGA          FAIR      61  39  44 W5        30.29S
WATFORD CITY   FAIR      61  39  44 W13       30.29S
BISMARCK       FAIR      66  49  54 W6        30.27S
GRAND FORKS    FAIR      64  52  64 N8        30.19S
FARGO          FAIR      63  50  62 N8        30.20R
BUFFALO SD       N/A     55  48  77 SW3       30.30R
RAPID CITY     CLOUDY    55  47  74 CALM      30.34S
$$

REGIONAL REPORTS...WYOMING/IDAHO/WASHINGTON

CITY           SKY/WX    TMP DP  RH WIND       PRES   REMARKS
GILLETTE       PTSUNNY   53  50  89 SE5       30.30R
SHERIDAN       CLOUDY    56  52  86 SE7       30.27S
BUFFALO WY     CLOUDY    52  50  93 SE9       30.32R
CODY           CLOUDY    47  45  93 NE6       30.32S
YELLOWSTONE LA   N/A     48  42  80 CALM      30.32R
IDAHO FALLS    FAIR      52  43  71 NE8       30.16S
SALMON         CLOUDY    55  47  74 N7        30.21R
BOISE          FAIR      59  48  67 S3        30.08R HAZE
SPOKANE        FAIR      61  39  44 NE7       30.17S SMOKE
$$

REGIONAL REPORTS...ALBERTA

CITY           SKY/WX    TMP DP  RH WIND       PRES   REMARKS
$$

REGIONAL REPORTS...SASKATCHEWAN

CITY           SKY/WX    TMP DP  RH WIND       PRES   REMARKS
$$




USA.gov is the U.S. government's official web portal to all federal, state and local government web resources and services.